Year,Month,Day,Hour,Minute,Value (Times are PST for insolation in W/m^2)
2007,07,31,00,00,0.00
2007,07,31,00,01,0.00
2007,07,31,00,02,0.00
2007,07,31,00,03,0.00
2007,07,31,00,04,0.00
2007,07,31,00,05,0.00
2007,07,31,00,06,0.00
2007,07,31,00,07,0.00
2007,07,31,00,08,0.00
2007,07,31,00,09,0.00
2007,07,31,00,10,0.00
2007,07,31,00,11,0.00
2007,07,31,00,12,0.00
2007,07,31,00,13,0.00
2007,07,31,00,14,0.00
2007,07,31,00,15,0.00
2007,07,31,00,16,0.00
2007,07,31,00,17,0.00
2007,07,31,00,18,0.00
2007,07,31,00,19,0.00
2007,07,31,00,20,0.00
2007,07,31,00,21,0.00
2007,07,31,00,22,0.00
2007,07,31,00,23,0.00
2007,07,31,00,24,0.00
2007,07,31,00,25,0.00
2007,07,31,00,26,0.00
2007,07,31,00,27,0.00
2007,07,31,00,28,0.00
2007,07,31,00,29,0.00
2007,07,31,00,30,0.00
2007,07,31,00,31,0.00
2007,07,31,00,32,0.00
2007,07,31,00,33,0.00
2007,07,31,00,34,0.00
2007,07,31,00,35,0.00
2007,07,31,00,36,0.00
2007,07,31,00,37,0.00
2007,07,31,00,38,0.00
2007,07,31,00,39,0.00
2007,07,31,00,40,0.00
2007,07,31,00,41,0.00
2007,07,31,00,42,0.00
2007,07,31,00,43,0.00
2007,07,31,00,44,0.00
2007,07,31,00,45,0.00
2007,07,31,00,46,0.00
2007,07,31,00,47,0.00
2007,07,31,00,48,0.00
2007,07,31,00,49,0.00
2007,07,31,00,50,0.00
2007,07,31,00,51,0.00
2007,07,31,00,52,0.00
2007,07,31,00,53,0.00
2007,07,31,00,54,0.00
2007,07,31,00,55,0.00
2007,07,31,00,56,0.00
2007,07,31,00,57,0.00
2007,07,31,00,58,0.00
2007,07,31,00,59,0.00
2007,07,31,01,00,0.00
2007,07,31,01,01,0.00
2007,07,31,01,02,0.00
2007,07,31,01,03,0.00
2007,07,31,01,04,0.00
2007,07,31,01,05,0.00
2007,07,31,01,06,0.00
2007,07,31,01,07,0.00
2007,07,31,01,08,0.00
2007,07,31,01,09,0.00
2007,07,31,01,10,0.00
2007,07,31,01,11,0.00
2007,07,31,01,12,0.00
2007,07,31,01,13,0.00
2007,07,31,01,14,0.00
2007,07,31,01,15,0.00
2007,07,31,01,16,0.00
2007,07,31,01,17,0.00
2007,07,31,01,18,0.00
2007,07,31,01,19,0.00
2007,07,31,01,20,0.00
2007,07,31,01,21,0.00
2007,07,31,01,22,0.00
2007,07,31,01,23,0.00
2007,07,31,01,24,0.00
2007,07,31,01,25,0.00
2007,07,31,01,26,0.00
2007,07,31,01,27,0.00
2007,07,31,01,28,0.00
2007,07,31,01,29,0.00
2007,07,31,01,30,0.00
2007,07,31,01,31,0.00
2007,07,31,01,32,0.00
2007,07,31,01,33,0.00
2007,07,31,01,34,0.00
2007,07,31,01,35,0.00
2007,07,31,01,36,0.00
2007,07,31,01,37,0.00
2007,07,31,01,38,0.00
2007,07,31,01,39,0.00
2007,07,31,01,40,0.00
2007,07,31,01,41,0.00
2007,07,31,01,42,0.00
2007,07,31,01,43,0.00
2007,07,31,01,44,0.00
2007,07,31,01,45,0.00
2007,07,31,01,46,0.00
2007,07,31,01,47,0.00
2007,07,31,01,48,0.00
2007,07,31,01,49,0.00
2007,07,31,01,50,0.00
2007,07,31,01,51,0.00
2007,07,31,01,52,0.00
2007,07,31,01,53,0.00
2007,07,31,01,54,0.00
2007,07,31,01,55,0.00
2007,07,31,01,56,0.00
2007,07,31,01,57,0.00
2007,07,31,01,58,0.00
2007,07,31,01,59,0.00
2007,07,31,02,00,0.00
2007,07,31,02,01,0.00
2007,07,31,02,02,0.00
2007,07,31,02,03,0.00
2007,07,31,02,04,0.00
2007,07,31,02,05,0.00
2007,07,31,02,06,0.00
2007,07,31,02,07,0.00
2007,07,31,02,08,0.00
2007,07,31,02,09,0.00
2007,07,31,02,10,0.00
2007,07,31,02,11,0.00
2007,07,31,02,12,0.00
2007,07,31,02,13,0.00
2007,07,31,02,14,0.00
2007,07,31,02,15,0.00
2007,07,31,02,16,0.00
2007,07,31,02,17,0.00
2007,07,31,02,18,0.00
2007,07,31,02,19,0.00
2007,07,31,02,20,0.00
2007,07,31,02,21,0.00
2007,07,31,02,22,0.00
2007,07,31,02,23,0.00
2007,07,31,02,24,0.00
2007,07,31,02,25,0.00
2007,07,31,02,26,0.00
2007,07,31,02,27,0.00
2007,07,31,02,28,0.00
2007,07,31,02,29,0.00
2007,07,31,02,30,0.00
2007,07,31,02,31,0.00
2007,07,31,02,32,0.00
2007,07,31,02,33,0.00
2007,07,31,02,34,0.00
2007,07,31,02,35,0.00
2007,07,31,02,36,0.00
2007,07,31,02,37,0.00
2007,07,31,02,38,0.00
2007,07,31,02,39,0.00
2007,07,31,02,40,0.00
2007,07,31,02,41,0.00
2007,07,31,02,42,0.00
2007,07,31,02,43,0.00
2007,07,31,02,44,0.00
2007,07,31,02,45,0.00
2007,07,31,02,46,0.00
2007,07,31,02,47,0.00
2007,07,31,02,48,0.00
2007,07,31,02,49,0.00
2007,07,31,02,50,0.00
2007,07,31,02,51,0.00
2007,07,31,02,52,0.00
2007,07,31,02,53,0.00
2007,07,31,02,54,0.00
2007,07,31,02,55,0.00
2007,07,31,02,56,0.00
2007,07,31,02,57,0.00
2007,07,31,02,58,0.00
2007,07,31,02,59,0.00
2007,07,31,03,00,0.00
2007,07,31,03,01,0.00
2007,07,31,03,02,0.00
2007,07,31,03,03,0.00
2007,07,31,03,04,0.00
2007,07,31,03,05,0.00
2007,07,31,03,06,0.00
2007,07,31,03,07,0.00
2007,07,31,03,08,0.00
2007,07,31,03,09,0.00
2007,07,31,03,10,0.00
2007,07,31,03,11,0.00
2007,07,31,03,12,0.00
2007,07,31,03,13,0.00
2007,07,31,03,14,0.00
2007,07,31,03,15,0.00
2007,07,31,03,16,0.00
2007,07,31,03,17,0.00
2007,07,31,03,18,0.00
2007,07,31,03,19,0.00
2007,07,31,03,20,0.00
2007,07,31,03,21,0.00
2007,07,31,03,22,0.00
2007,07,31,03,23,0.00
2007,07,31,03,24,0.00
2007,07,31,03,25,0.00
2007,07,31,03,26,0.00
2007,07,31,03,27,0.00
2007,07,31,03,28,0.00
2007,07,31,03,29,0.00
2007,07,31,03,30,0.00
2007,07,31,03,31,0.00
2007,07,31,03,32,0.00
2007,07,31,03,33,0.00
2007,07,31,03,34,0.00
2007,07,31,03,35,0.00
2007,07,31,03,36,0.00
2007,07,31,03,37,0.00
2007,07,31,03,38,0.00
2007,07,31,03,39,0.00
2007,07,31,03,40,0.00
2007,07,31,03,41,0.00
2007,07,31,03,42,0.00
2007,07,31,03,43,0.00
2007,07,31,03,44,0.00
2007,07,31,03,45,0.00
2007,07,31,03,46,0.00
2007,07,31,03,47,0.00
2007,07,31,03,48,0.00
2007,07,31,03,49,0.00
2007,07,31,03,50,0.00
2007,07,31,03,51,0.00
2007,07,31,03,52,0.00
2007,07,31,03,53,0.00
2007,07,31,03,54,0.00
2007,07,31,03,55,0.00
2007,07,31,03,56,0.00
2007,07,31,03,57,0.00
2007,07,31,03,58,0.00
2007,07,31,03,59,0.00
2007,07,31,04,00,0.00
2007,07,31,04,01,0.00
2007,07,31,04,02,0.00
2007,07,31,04,03,0.00
2007,07,31,04,04,0.00
2007,07,31,04,05,0.00
2007,07,31,04,06,0.00
2007,07,31,04,07,0.00
2007,07,31,04,08,0.00
2007,07,31,04,09,0.00
2007,07,31,04,10,0.00
2007,07,31,04,11,0.00
2007,07,31,04,12,0.00
2007,07,31,04,13,0.00
2007,07,31,04,14,0.00
2007,07,31,04,15,0.00
2007,07,31,04,16,0.00
2007,07,31,04,17,0.00
2007,07,31,04,18,0.00
2007,07,31,04,19,0.00
2007,07,31,04,20,0.00
2007,07,31,04,21,0.00
2007,07,31,04,22,0.00
2007,07,31,04,23,0.00
2007,07,31,04,24,0.00
2007,07,31,04,25,0.00
2007,07,31,04,26,0.00
2007,07,31,04,27,0.00
2007,07,31,04,28,0.00
2007,07,31,04,29,0.00
2007,07,31,04,30,0.00
2007,07,31,04,31,0.00
2007,07,31,04,32,0.00
2007,07,31,04,33,0.00
2007,07,31,04,34,0.00
2007,07,31,04,35,0.00
2007,07,31,04,36,0.00
2007,07,31,04,37,0.00
2007,07,31,04,38,0.00
2007,07,31,04,39,0.00
2007,07,31,04,40,0.00
2007,07,31,04,41,0.00
2007,07,31,04,42,0.00
2007,07,31,04,43,0.00
2007,07,31,04,44,0.00
2007,07,31,04,45,0.00
2007,07,31,04,46,0.00
2007,07,31,04,47,0.00
2007,07,31,04,48,0.00
2007,07,31,04,49,0.00
2007,07,31,04,50,0.00
2007,07,31,04,51,0.00
2007,07,31,04,52,0.00
2007,07,31,04,53,0.00
2007,07,31,04,54,0.00
2007,07,31,04,55,0.00
2007,07,31,04,56,0.00
2007,07,31,04,57,0.00
2007,07,31,04,58,0.00
2007,07,31,04,59,0.00
2007,07,31,05,00,0.00
2007,07,31,05,01,0.00
2007,07,31,05,02,0.00
2007,07,31,05,03,0.00
2007,07,31,05,04,0.00
2007,07,31,05,05,0.00
2007,07,31,05,06,0.00
2007,07,31,05,07,0.00
2007,07,31,05,08,0.00
2007,07,31,05,09,0.00
2007,07,31,05,10,0.00
2007,07,31,05,11,0.00
2007,07,31,05,12,0.00
2007,07,31,05,13,0.00
2007,07,31,05,14,0.00
2007,07,31,05,15,0.00
2007,07,31,05,16,0.00
2007,07,31,05,17,0.00
2007,07,31,05,18,0.00
2007,07,31,05,19,0.00
2007,07,31,05,20,0.00
2007,07,31,05,21,0.00
2007,07,31,05,22,0.00
2007,07,31,05,23,0.00
2007,07,31,05,24,0.00
2007,07,31,05,25,0.00
2007,07,31,05,26,0.00
2007,07,31,05,27,0.00
2007,07,31,05,28,0.00
2007,07,31,05,29,0.00
2007,07,31,05,30,0.00
2007,07,31,05,31,0.00
2007,07,31,05,32,0.00
2007,07,31,05,33,0.00
2007,07,31,05,34,0.00
2007,07,31,05,35,0.00
2007,07,31,05,36,0.00
2007,07,31,05,37,0.00
2007,07,31,05,38,0.00
2007,07,31,05,39,0.00
2007,07,31,05,40,0.00
2007,07,31,05,41,0.00
2007,07,31,05,42,0.00
2007,07,31,05,43,0.00
2007,07,31,05,44,0.00
2007,07,31,05,45,0.00
2007,07,31,05,46,0.00
2007,07,31,05,47,0.00
2007,07,31,05,48,0.90
2007,07,31,05,49,5.00
2007,07,31,05,50,5.00
2007,07,31,05,51,5.00
2007,07,31,05,52,5.00
2007,07,31,05,53,5.40
2007,07,31,05,54,7.00
2007,07,31,05,55,7.00
2007,07,31,05,56,7.00
2007,07,31,05,57,7.00
2007,07,31,05,58,7.00
2007,07,31,05,59,7.00
2007,07,31,06,00,7.40
2007,07,31,06,01,9.00
2007,07,31,06,02,9.00
2007,07,31,06,03,9.00
2007,07,31,06,04,9.40
2007,07,31,06,05,11.00
2007,07,31,06,06,11.00
2007,07,31,06,07,11.00
2007,07,31,06,08,11.00
2007,07,31,06,09,11.00
2007,07,31,06,10,11.20
2007,07,31,06,11,12.00
2007,07,31,06,12,12.00
2007,07,31,06,13,12.00
2007,07,31,06,14,12.00
2007,07,31,06,15,12.00
2007,07,31,06,16,12.30
2007,07,31,06,17,14.00
2007,07,31,06,18,14.00
2007,07,31,06,19,14.00
2007,07,31,06,20,14.00
2007,07,31,06,21,14.00
2007,07,31,06,22,14.40
2007,07,31,06,23,16.00
2007,07,31,06,24,16.00
2007,07,31,06,25,16.00
2007,07,31,06,26,16.00
2007,07,31,06,27,16.00
2007,07,31,06,28,16.00
2007,07,31,06,29,16.40
2007,07,31,06,30,18.00
2007,07,31,06,31,18.00
2007,07,31,06,32,18.00
2007,07,31,06,33,18.00
2007,07,31,06,34,18.00
2007,07,31,06,35,18.00
2007,07,31,06,36,18.20
2007,07,31,06,37,19.00
2007,07,31,06,38,19.00
2007,07,31,06,39,19.00
2007,07,31,06,40,19.00
2007,07,31,06,41,19.00
2007,07,31,06,42,19.00
2007,07,31,06,43,19.00
2007,07,31,06,44,19.00
2007,07,31,06,45,19.40
2007,07,31,06,46,21.00
2007,07,31,06,47,21.00
2007,07,31,06,48,21.00
2007,07,31,06,49,21.00
2007,07,31,06,50,21.00
2007,07,31,06,51,21.00
2007,07,31,06,52,21.00
2007,07,31,06,53,21.00
2007,07,31,06,54,21.40
2007,07,31,06,55,23.40
2007,07,31,06,56,24.60
2007,07,31,06,57,23.00
2007,07,31,06,58,23.00
2007,07,31,06,59,23.00
2007,07,31,07,00,23.00
2007,07,31,07,01,23.00
2007,07,31,07,02,23.00
2007,07,31,07,03,23.00
2007,07,31,07,04,23.00
2007,07,31,07,05,23.00
2007,07,31,07,06,23.00
2007,07,31,07,07,23.00
2007,07,31,07,08,23.00
2007,07,31,07,09,23.00
2007,07,31,07,10,23.40
2007,07,31,07,11,25.00
2007,07,31,07,12,25.00
2007,07,31,07,13,25.00
2007,07,31,07,14,25.00
2007,07,31,07,15,25.00
2007,07,31,07,16,25.00
2007,07,31,07,17,25.00
2007,07,31,07,18,25.00
2007,07,31,07,19,25.00
2007,07,31,07,20,25.00
2007,07,31,07,21,25.00
2007,07,31,07,22,25.00
2007,07,31,07,23,25.00
2007,07,31,07,24,25.00
2007,07,31,07,25,25.20
2007,07,31,07,26,26.00
2007,07,31,07,27,26.00
2007,07,31,07,28,26.00
2007,07,31,07,29,26.00
2007,07,31,07,30,26.00
2007,07,31,07,31,26.00
2007,07,31,07,32,26.40
2007,07,31,07,33,28.00
2007,07,31,07,34,28.00
2007,07,31,07,35,28.00
2007,07,31,07,36,27.60
2007,07,31,07,37,26.40
2007,07,31,07,38,28.70
2007,07,31,07,39,31.40
2007,07,31,07,40,28.00
2007,07,31,07,41,28.00
2007,07,31,07,42,28.00
2007,07,31,07,43,28.00
2007,07,31,07,44,28.00
2007,07,31,07,45,28.00
2007,07,31,07,46,28.00
2007,07,31,07,47,28.00
2007,07,31,07,48,28.00
2007,07,31,07,49,28.00
2007,07,31,07,50,28.00
2007,07,31,07,51,28.00
2007,07,31,07,52,28.00
2007,07,31,07,53,28.40
2007,07,31,07,54,30.00
2007,07,31,07,55,30.00
2007,07,31,07,56,29.60
2007,07,31,07,57,28.00
2007,07,31,07,58,28.00
2007,07,31,07,59,28.90
2007,07,31,08,00,36.20
2007,07,31,08,01,57.20
2007,07,31,08,02,67.10
2007,07,31,08,03,88.80
2007,07,31,08,04,99.60
2007,07,31,08,05,86.80
2007,07,31,08,06,85.20
2007,07,31,08,07,55.50
2007,07,31,08,08,46.80
2007,07,31,08,09,58.90
2007,07,31,08,10,50.30
2007,07,31,08,11,32.50
2007,07,31,08,12,30.50
2007,07,31,08,13,36.50
2007,07,31,08,14,52.60
2007,07,31,08,15,48.20
2007,07,31,08,16,34.60
2007,07,31,08,17,33.70
2007,07,31,08,18,36.70
2007,07,31,08,19,34.50
2007,07,31,08,20,32.00
2007,07,31,08,21,32.00
2007,07,31,08,22,32.50
2007,07,31,08,23,37.50
2007,07,31,08,24,51.50
2007,07,31,08,25,75.50
2007,07,31,08,26,149.20
2007,07,31,08,27,212.60
2007,07,31,08,28,161.80
2007,07,31,08,29,77.30
2007,07,31,08,30,45.20
2007,07,31,08,31,41.60
2007,07,31,08,32,63.00
2007,07,31,08,33,73.90
2007,07,31,08,34,114.80
2007,07,31,08,35,62.10
2007,07,31,08,36,39.00
2007,07,31,08,37,41.50
2007,07,31,08,38,55.10
2007,07,31,08,39,62.20
2007,07,31,08,40,46.90
2007,07,31,08,41,37.00
2007,07,31,08,42,38.60
2007,07,31,08,43,46.00
2007,07,31,08,44,47.20
2007,07,31,08,45,51.90
2007,07,31,08,46,41.60
2007,07,31,08,47,54.30
2007,07,31,08,48,79.40
2007,07,31,08,49,76.10
2007,07,31,08,50,53.00
2007,07,31,08,51,66.20
2007,07,31,08,52,137.70
2007,07,31,08,53,183.00
2007,07,31,08,54,219.20
2007,07,31,08,55,396.20
2007,07,31,08,56,425.70
2007,07,31,08,57,429.40
2007,07,31,08,58,431.20
2007,07,31,08,59,432.70
2007,07,31,09,00,436.50
2007,07,31,09,01,439.40
2007,07,31,09,02,441.60
2007,07,31,09,03,445.50
2007,07,31,09,04,448.40
2007,07,31,09,05,450.40
2007,07,31,09,06,452.50
2007,07,31,09,07,455.30
2007,07,31,09,08,457.70
2007,07,31,09,09,461.50
2007,07,31,09,10,464.70
2007,07,31,09,11,468.20
2007,07,31,09,12,469.40
2007,07,31,09,13,471.70
2007,07,31,09,14,475.50
2007,07,31,09,15,478.40
2007,07,31,09,16,480.40
2007,07,31,09,17,482.50
2007,07,31,09,18,485.40
2007,07,31,09,19,487.40
2007,07,31,09,20,489.50
2007,07,31,09,21,492.40
2007,07,31,09,22,494.50
2007,07,31,09,23,497.70
2007,07,31,09,24,501.40
2007,07,31,09,25,503.50
2007,07,31,09,26,506.00
2007,07,31,09,27,506.70
2007,07,31,09,28,510.50
2007,07,31,09,29,513.30
2007,07,31,09,30,515.90
2007,07,31,09,31,519.20
2007,07,31,09,32,520.70
2007,07,31,09,33,524.40
2007,07,31,09,34,526.20
2007,07,31,09,35,527.70
2007,07,31,09,36,531.50
2007,07,31,09,37,534.40
2007,07,31,09,38,536.40
2007,07,31,09,39,538.50
2007,07,31,09,40,541.70
2007,07,31,09,41,545.50
2007,07,31,09,42,548.00
2007,07,31,09,43,548.40
2007,07,31,09,44,550.40
2007,07,31,09,45,552.50
2007,07,31,09,46,555.40
2007,07,31,09,47,557.40
2007,07,31,09,48,559.70
2007,07,31,09,49,563.50
2007,07,31,09,50,566.00
2007,07,31,09,51,566.70
2007,07,31,09,52,570.20
2007,07,31,09,53,571.70
2007,07,31,09,54,575.00
2007,07,31,09,55,575.30
2007,07,31,09,56,577.50
2007,07,31,09,57,580.00
2007,07,31,09,58,580.40
2007,07,31,09,59,582.90
2007,07,31,10,00,587.30
2007,07,31,10,01,589.40
2007,07,31,10,02,591.50
2007,07,31,10,03,594.00
2007,07,31,10,04,594.40
2007,07,31,10,05,596.40
2007,07,31,10,06,598.50
2007,07,31,10,07,601.70
2007,07,31,10,08,605.20
2007,07,31,10,09,606.40
2007,07,31,10,10,608.90
2007,07,31,10,11,613.00
2007,07,31,10,12,613.70
2007,07,31,10,13,617.00
2007,07,31,10,14,617.90
2007,07,31,10,15,621.20
2007,07,31,10,16,622.90
2007,07,31,10,17,627.60
2007,07,31,10,18,626.80
2007,07,31,10,19,631.00
2007,07,31,10,20,631.40
2007,07,31,10,21,633.40
2007,07,31,10,22,635.20
2007,07,31,10,23,636.70
2007,07,31,10,24,640.40
2007,07,31,10,25,642.20
2007,07,31,10,26,643.40
2007,07,31,10,27,645.40
2007,07,31,10,28,647.00
2007,07,31,10,29,647.40
2007,07,31,10,30,649.00
2007,07,31,10,31,649.90
2007,07,31,10,32,654.40
2007,07,31,10,33,656.20
2007,07,31,10,34,657.70
2007,07,31,10,35,661.00
2007,07,31,10,36,661.50
2007,07,31,10,37,664.40
2007,07,31,10,38,666.40
2007,07,31,10,39,668.40
2007,07,31,10,40,670.20
2007,07,31,10,41,671.40
2007,07,31,10,42,673.40
2007,07,31,10,43,675.70
2007,07,31,10,44,679.00
2007,07,31,10,45,679.50
2007,07,31,10,46,682.00
2007,07,31,10,47,682.40
2007,07,31,10,48,684.50
2007,07,31,10,49,687.40
2007,07,31,10,50,689.00
2007,07,31,10,51,689.70
2007,07,31,10,52,693.20
2007,07,31,10,53,694.00
2007,07,31,10,54,694.70
2007,07,31,10,55,698.50
2007,07,31,10,56,701.00
2007,07,31,10,57,701.70
2007,07,31,10,58,705.00
2007,07,31,10,59,705.40
2007,07,31,11,00,707.00
2007,07,31,11,01,707.20
2007,07,31,11,02,708.60
2007,07,31,11,03,712.00
2007,07,31,11,04,712.00
2007,07,31,11,05,712.50
2007,07,31,11,06,715.30
2007,07,31,11,07,717.30
2007,07,31,11,08,719.40
2007,07,31,11,09,721.20
2007,07,31,11,10,722.90
2007,07,31,11,11,725.60
2007,07,31,11,12,724.90
2007,07,31,11,13,729.00
2007,07,31,11,14,729.40
2007,07,31,11,15,731.40
2007,07,31,11,16,733.40
2007,07,31,11,17,735.00
2007,07,31,11,18,735.40
2007,07,31,11,19,737.50
2007,07,31,11,20,740.40
2007,07,31,11,21,742.40
2007,07,31,11,22,743.60
2007,07,31,11,23,742.40
2007,07,31,11,24,744.20
2007,07,31,11,25,745.40
2007,07,31,11,26,747.00
2007,07,31,11,27,747.40
2007,07,31,11,28,749.50
2007,07,31,11,29,752.40
2007,07,31,11,30,754.40
2007,07,31,11,31,755.60
2007,07,31,11,32,754.70
2007,07,31,11,33,758.20
2007,07,31,11,34,759.00
2007,07,31,11,35,759.40
2007,07,31,11,36,761.40
2007,07,31,11,37,763.40
2007,07,31,11,38,765.20
2007,07,31,11,39,766.00
2007,07,31,11,40,766.40
2007,07,31,11,41,768.00
2007,07,31,11,42,768.40
2007,07,31,11,43,770.40
2007,07,31,11,44,772.00
2007,07,31,11,45,772.00
2007,07,31,11,46,772.50
2007,07,31,11,47,775.00
2007,07,31,11,48,775.40
2007,07,31,11,49,777.40
2007,07,31,11,50,779.20
2007,07,31,11,51,779.10
2007,07,31,11,52,775.40
2007,07,31,11,53,777.00
2007,07,31,11,54,777.00
2007,07,31,11,55,777.00
2007,07,31,11,56,43.20
2007,07,31,11,57,0.00
2007,07,31,11,58,0.00
2007,07,31,11,59,0.00
2007,07,31,12,00,0.00
2007,07,31,12,01,0.00
2007,07,31,12,02,0.00
2007,07,31,12,03,0.00
2007,07,31,12,04,0.00
2007,07,31,12,05,0.00
2007,07,31,12,06,0.00
2007,07,31,12,07,0.00
2007,07,31,12,08,0.00
2007,07,31,12,09,0.00
2007,07,31,12,10,0.00
2007,07,31,12,11,0.00
2007,07,31,12,12,0.00
2007,07,31,12,13,0.00
2007,07,31,12,14,0.00
2007,07,31,12,15,0.00
2007,07,31,12,16,0.00
2007,07,31,12,17,0.00
2007,07,31,12,18,0.00
2007,07,31,12,19,0.00
2007,07,31,12,20,0.00
2007,07,31,12,21,0.00
2007,07,31,12,22,0.00
2007,07,31,12,23,0.00
2007,07,31,12,24,0.00
2007,07,31,12,25,0.00
2007,07,31,12,26,0.00
2007,07,31,12,27,0.00
2007,07,31,12,28,0.00
2007,07,31,12,29,0.00
2007,07,31,12,30,0.00
2007,07,31,12,31,0.00
2007,07,31,12,32,0.00
2007,07,31,12,33,0.00
2007,07,31,12,34,0.00
2007,07,31,12,35,0.00
2007,07,31,12,36,16.90
2007,07,31,12,37,18.00
2007,07,31,12,38,27.40
2007,07,31,12,39,28.00
2007,07,31,12,40,1.60
2007,07,31,12,41,0.00
2007,07,31,12,42,0.00
2007,07,31,12,43,0.00
2007,07,31,12,44,0.00
2007,07,31,12,45,0.00
2007,07,31,12,47,886.00
2007,07,31,12,48,886.70
2007,07,31,12,49,889.00
2007,07,31,12,50,889.00
2007,07,31,12,51,890.50
2007,07,31,12,52,891.00
2007,07,31,12,53,891.20
2007,07,31,12,54,893.00
2007,07,31,12,55,893.80
2007,07,31,12,56,893.80
2007,07,31,12,57,893.00
2007,07,31,12,58,893.00
2007,07,31,12,59,895.20
2007,07,31,13,00,896.00
2007,07,31,13,01,896.00
2007,07,31,13,02,895.40
2007,07,31,13,03,895.80
2007,07,31,13,04,896.00
2007,07,31,13,05,895.00
2007,07,31,13,06,895.30
2007,07,31,13,07,896.00
2007,07,31,13,08,896.00
2007,07,31,13,09,896.00
2007,07,31,13,10,902.00
2007,07,31,13,11,895.50
2007,07,31,13,12,898.70
2007,07,31,13,13,900.00
2007,07,31,13,14,900.00
2007,07,31,13,15,900.00
2007,07,31,13,16,900.10
2007,07,31,13,17,902.00
2007,07,31,13,18,901.20
2007,07,31,13,19,900.00
2007,07,31,13,20,901.40
2007,07,31,13,21,900.50
2007,07,31,13,22,901.90
2007,07,31,13,23,900.50
2007,07,31,13,24,902.80
2007,07,31,13,25,902.80
2007,07,31,13,26,899.20
2007,07,31,13,27,899.80
2007,07,31,13,28,900.00
2007,07,31,13,29,900.50
2007,07,31,13,30,902.00
2007,07,31,13,31,902.00
2007,07,31,13,32,903.60
2007,07,31,13,33,900.20
2007,07,31,13,34,900.30
2007,07,31,13,35,901.40
2007,07,31,13,36,900.00
2007,07,31,13,37,900.00
2007,07,31,13,38,898.40
2007,07,31,13,39,899.90
2007,07,31,13,40,899.80
2007,07,31,13,41,897.40
2007,07,31,13,42,899.00
2007,07,31,13,43,899.40
2007,07,31,13,44,899.60
2007,07,31,13,45,898.00
2007,07,31,13,46,899.60
2007,07,31,13,47,898.60
2007,07,31,13,48,899.10
2007,07,31,13,49,896.00
2007,07,31,13,50,895.00
2007,07,31,13,51,895.00
2007,07,31,13,52,895.80
2007,07,31,13,53,894.30
2007,07,31,13,54,894.10
2007,07,31,13,55,893.60
2007,07,31,13,56,894.60
2007,07,31,13,57,895.00
2007,07,31,13,58,894.50
2007,07,31,13,59,893.00
2007,07,31,14,00,891.00
2007,07,31,14,01,892.40
2007,07,31,14,02,891.20
2007,07,31,14,03,890.90
2007,07,31,14,04,888.80
2007,07,31,14,05,888.00
2007,07,31,14,06,888.00
2007,07,31,14,07,888.00
2007,07,31,14,08,888.00
2007,07,31,14,09,884.20
2007,07,31,14,10,885.40
2007,07,31,14,11,884.00
2007,07,31,14,12,885.00
2007,07,31,14,13,882.90
2007,07,31,14,14,877.30
2007,07,31,14,15,883.60
2007,07,31,14,16,881.00
2007,07,31,14,17,880.10
2007,07,31,14,18,879.00
2007,07,31,14,19,879.00
2007,07,31,14,20,879.00
2007,07,31,14,21,877.00
2007,07,31,14,22,876.40
2007,07,31,14,23,875.00
2007,07,31,14,24,874.40
2007,07,31,14,25,874.00
2007,07,31,14,26,874.00
2007,07,31,14,27,872.00
2007,07,31,14,28,871.40
2007,07,31,14,29,870.00
2007,07,31,14,30,870.00
2007,07,31,14,31,870.00
2007,07,31,14,32,865.00
2007,07,31,14,33,867.50
2007,07,31,14,34,865.70
2007,07,31,14,35,865.90
2007,07,31,14,36,863.60
2007,07,31,14,37,861.50
2007,07,31,14,38,862.90
2007,07,31,14,39,860.10
2007,07,31,14,40,856.70
2007,07,31,14,41,858.00
2007,07,31,14,42,859.40
2007,07,31,14,43,858.20
2007,07,31,14,44,859.80
2007,07,31,14,45,856.00
2007,07,31,14,46,854.80
2007,07,31,14,47,853.00
2007,07,31,14,48,853.00
2007,07,31,14,49,853.00
2007,07,31,14,50,852.90
2007,07,31,14,51,850.40
2007,07,31,14,52,848.20
2007,07,31,14,53,846.40
2007,07,31,14,54,844.50
2007,07,31,14,55,845.90
2007,07,31,14,56,843.30
2007,07,31,14,57,839.20
2007,07,31,14,58,842.00
2007,07,31,14,59,840.20
2007,07,31,15,00,837.20
2007,07,31,15,01,837.00
2007,07,31,15,02,834.60
2007,07,31,15,03,833.00
2007,07,31,15,04,831.50
2007,07,31,15,05,830.00
2007,07,31,15,06,830.00
2007,07,31,15,07,828.00
2007,07,31,15,08,826.00
2007,07,31,15,09,825.40
2007,07,31,15,10,822.70
2007,07,31,15,11,821.00
2007,07,31,15,12,819.40
2007,07,31,15,13,819.00
2007,07,31,15,14,816.80
2007,07,31,15,15,816.00
2007,07,31,15,16,815.10
2007,07,31,15,17,811.20
2007,07,31,15,18,810.00
2007,07,31,15,19,809.00
2007,07,31,15,20,807.40
2007,07,31,15,21,806.70
2007,07,31,15,22,804.10
2007,07,31,15,23,803.80
2007,07,31,15,24,803.00
2007,07,31,15,25,800.20
2007,07,31,15,26,797.60
2007,07,31,15,27,797.60
2007,07,31,15,28,796.50
2007,07,31,15,29,793.00
2007,07,31,15,30,793.00
2007,07,31,15,31,789.00
2007,07,31,15,32,788.80
2007,07,31,15,33,787.10
2007,07,31,15,34,784.80
2007,07,31,15,35,782.70
2007,07,31,15,36,782.00
2007,07,31,15,37,780.00
2007,07,31,15,38,779.10
2007,07,31,15,39,777.00
2007,07,31,15,40,774.80
2007,07,31,15,41,772.30
2007,07,31,15,42,772.00
2007,07,31,15,43,770.10
2007,07,31,15,44,770.00
2007,07,31,15,45,769.10
2007,07,31,15,46,766.10
2007,07,31,15,47,761.90
2007,07,31,15,48,761.00
2007,07,31,15,49,760.60
2007,07,31,15,50,757.30
2007,07,31,15,51,754.10
2007,07,31,15,52,753.40
2007,07,31,15,53,751.50
2007,07,31,15,54,752.00
2007,07,31,15,55,750.80
2007,07,31,15,56,745.00
2007,07,31,15,57,744.50
2007,07,31,15,58,742.70
2007,07,31,15,59,738.70
2007,07,31,16,00,737.00
2007,07,31,16,01,736.10
2007,07,31,16,02,733.00
2007,07,31,16,03,731.80
2007,07,31,16,04,728.90
2007,07,31,16,05,726.20
2007,07,31,16,06,725.80
2007,07,31,16,07,721.80
2007,07,31,16,08,719.40
2007,07,31,16,09,717.00
2007,07,31,16,10,714.70
2007,07,31,16,11,714.00
2007,07,31,16,12,710.20
2007,07,31,16,13,709.50
2007,07,31,16,14,707.60
2007,07,31,16,15,704.60
2007,07,31,16,16,701.50
2007,07,31,16,17,701.00
2007,07,31,16,18,699.80
2007,07,31,16,19,697.40
2007,07,31,16,20,695.10
2007,07,31,16,21,693.40
2007,07,31,16,22,691.60
2007,07,31,16,23,689.10
2007,07,31,16,24,685.80
2007,07,31,16,25,683.40
2007,07,31,16,26,681.10
2007,07,31,16,27,680.00
2007,07,31,16,28,679.30
2007,07,31,16,29,675.00
2007,07,31,16,30,671.00
2007,07,31,16,31,671.00
2007,07,31,16,32,671.00
2007,07,31,16,33,665.80
2007,07,31,16,34,660.20
2007,07,31,16,35,659.00
2007,07,31,16,36,655.70
2007,07,31,16,37,654.00
2007,07,31,16,38,651.90
2007,07,31,16,39,650.00
2007,07,31,16,40,649.10
2007,07,31,16,41,644.90
2007,07,31,16,42,643.00
2007,07,31,16,43,642.60
2007,07,31,16,44,639.90
2007,07,31,16,45,636.60
2007,07,31,16,46,635.10
2007,07,31,16,47,630.90
2007,07,31,16,48,628.40
2007,07,31,16,49,624.60
2007,07,31,16,50,621.40
2007,07,31,16,51,621.00
2007,07,31,16,52,617.20
2007,07,31,16,53,615.00
2007,07,31,16,54,614.10
2007,07,31,16,55,610.00
2007,07,31,16,56,607.80
2007,07,31,16,57,605.20
2007,07,31,16,58,603.10
2007,07,31,16,59,598.60
2007,07,31,17,00,596.00
2007,07,31,17,01,595.10
2007,07,31,17,02,594.00
2007,07,31,17,03,589.90
2007,07,31,17,04,587.10
2007,07,31,17,05,585.00
2007,07,31,17,06,583.40
2007,07,31,17,07,580.40
2007,07,31,17,08,578.00
2007,07,31,17,09,577.20
2007,07,31,17,10,575.00
2007,07,31,17,11,570.80
2007,07,31,17,12,569.30
2007,07,31,17,13,568.00
2007,07,31,17,14,565.40
2007,07,31,17,15,561.50
2007,07,31,17,16,559.10
2007,07,31,17,17,555.00
2007,07,31,17,18,554.60